• In United Kingdom
  • List of Countries
  • For 7 days
  • Water Temperature
  • Satellite Maps
  • Weather Map
  • Weather Widgets
  • user-avatar
    Login

    Hourly Weather Corozal

    Today, 17 July, Tuesday

    Time Temperature Precipitation Wind Pressure Humidity
    00:00 +26°C° 0 mm 1 mps 762 mmHg 96%
    01:00 +26°C° 0 mm 1 mps 762 mmHg 97%
    02:00 +26°C° 0 mm 1 mps 761 mmHg 98%
    03:00 +26°C° 0 mm 1 mps 761 mmHg 98%
    04:00 +26°C° 0 mm 1 mps 761 mmHg 98%
    05:00 +26°C° 0 mm 1 mps 761 mmHg 98%
    06:00 +26°C° 0 mm 1 mps 761 mmHg 98%
    07:00 +28°C° 0 mm 2 mps 762 mmHg 88%
    08:00 +30°C° 0 mm 2 mps 762 mmHg 78%
    09:00 +32°C° 0 mm 2 mps 762 mmHg 69%
    10:00 +34°C° 0 mm 2 mps 762 mmHg 62%
    11:00 +36°C° 0 mm 3 mps 762 mmHg 55%
    12:00 +37°C° 0 mm 3 mps 762 mmHg 49%
    13:00 +37°C° 0 mm 3 mps 761 mmHg 48%
    14:00 +37°C° 0 mm 3 mps 761 mmHg 48%
    15:00 +37°C° 0 mm 3 mps 760 mmHg 48%
    16:00 +35°C° 0 mm 3 mps 760 mmHg 54%
    17:00 +33°C° 0 mm 3 mps 760 mmHg 61%
    18:00 +31°C° 0 mm 3 mps 760 mmHg 68%
    19:00 +30°C° 0 mm 2 mps 761 mmHg 75%
    20:00 +29°C° 0 mm 2 mps 761 mmHg 82%
    21:00 +27°C° 0 mm 2 mps 761 mmHg 89%
    22:00 +27°C° 0 mm 2 mps 761 mmHg 91%
    23:00 +27°C° 0 mm 2 mps 761 mmHg 93%

    Tomorrow, 18 July, Wednesday

    Time Temperature Precipitation Wind Pressure Humidity
    00:00 +26°C° 0 mm 2 mps 761 mmHg 96%
    01:00 +26°C° 0 mm 2 mps 761 mmHg 96%
    02:00 +26°C° 0 mm 2 mps 761 mmHg 97%
    03:00 +26°C° 0 mm 1 mps 760 mmHg 97%
    04:00 +26°C° 0 mm 1 mps 760 mmHg 97%
    05:00 +26°C° 0 mm 1 mps 760 mmHg 97%
    06:00 +26°C° 0 mm 1 mps 760 mmHg 97%
    07:00 +28°C° 0.1 mm 2 mps 761 mmHg 86%
    08:00 +30°C° 0.1 mm 2 mps 761 mmHg 76%
    09:00 +33°C° 0.1 mm 3 mps 761 mmHg 65%
    10:00 +34°C° 0.4 mm 3 mps 761 mmHg 62%
    11:00 +35°C° 0.4 mm 3 mps 761 mmHg 59%
    12:00 +36°C° 0.4 mm 4 mps 761 mmHg 56%
    13:00 +36°C° 0.5 mm 4 mps 760 mmHg 56%
    14:00 +35°C° 0.5 mm 3 mps 760 mmHg 56%
    15:00 +35°C° 0.5 mm 3 mps 759 mmHg 56%
    16:00 +34°C° 0 mm 3 mps 759 mmHg 62%
    17:00 +33°C° 0 mm 3 mps 759 mmHg 67%
    18:00 +31°C° 0 mm 2 mps 759 mmHg 72%
    19:00 +30°C° 0 mm 2 mps 760 mmHg 77%
    20:00 +29°C° 0 mm 2 mps 760 mmHg 83%
    21:00 +28°C° 0 mm 2 mps 760 mmHg 88%
    22:00 +27°C° 0.1 mm 2 mps 760 mmHg 90%
    23:00 +27°C° 0.1 mm 2 mps 760 mmHg 93%

    Day after tomorrow, 19 July, Thursday

    Time Temperature Precipitation Wind Pressure Humidity
    00:00 +27°C° 0.1 mm 2 mps 760 mmHg 95%
    01:00 +27°C° 0 mm 2 mps 760 mmHg 95%
    02:00 +26°C° 0 mm 2 mps 759 mmHg 96%
    03:00 +26°C° 0 mm 2 mps 759 mmHg 97%
    04:00 +26°C° 0 mm 2 mps 759 mmHg 96%
    05:00 +27°C° 0 mm 2 mps 759 mmHg 96%
    06:00 +27°C° 0 mm 2 mps 759 mmHg 95%
    07:00 +29°C° 0 mm 2 mps 760 mmHg 86%
    08:00 +31°C° 0 mm 3 mps 760 mmHg 76%
    09:00 +34°C° 0 mm 3 mps 760 mmHg 66%
    10:00 +35°C° 0 mm 4 mps 760 mmHg 61%
    11:00 +36°C° 0 mm 4 mps 760 mmHg 55%
    12:00 +37°C° 0 mm 4 mps 760 mmHg 49%
    13:00 +37°C° 0 mm 4 mps 759 mmHg 49%
    14:00 +37°C° 0 mm 4 mps 759 mmHg 49%
    15:00 +37°C° 0 mm 4 mps 758 mmHg 50%
    16:00 +35°C° 0 mm 4 mps 758 mmHg 56%
    17:00 +34°C° 0 mm 3 mps 758 mmHg 62%
    18:00 +31°C° 0 mm 3 mps 759 mmHg 69%
    19:00 +30°C° 0 mm 3 mps 759 mmHg 76%
    20:00 +28°C° 0 mm 2 mps 759 mmHg 83%
    21:00 +27°C° 0 mm 2 mps 760 mmHg 91%
    22:00 +27°C° 0 mm 2 mps 760 mmHg 92%
    23:00 +26°C° 0 mm 2 mps 760 mmHg 93%

    20 July, Friday

    Time Temperature Precipitation Wind Pressure Humidity
    00:00 +26°C° 0 mm 2 mps 760 mmHg 95%
    01:00 +26°C° 0 mm 2 mps 760 mmHg 95%
    02:00 +26°C° 0 mm 2 mps 759 mmHg 95%
    03:00 +26°C° 0 mm 2 mps 759 mmHg 95%
    04:00 +26°C° 0 mm 2 mps 759 mmHg 95%
    05:00 +26°C° 0 mm 2 mps 759 mmHg 95%
    06:00 +26°C° 0 mm 2 mps 759 mmHg 95%
    07:00 +28°C° 0 mm 2 mps 760 mmHg 86%
    08:00 +31°C° 0 mm 3 mps 760 mmHg 76%
    09:00 +34°C° 0 mm 3 mps 760 mmHg 66%
    10:00 +35°C° 0 mm 3 mps 760 mmHg 60%
    11:00 +36°C° 0 mm 3 mps 760 mmHg 53%
    12:00 +37°C° 0 mm 4 mps 760 mmHg 47%
    13:00 +37°C° 0 mm 4 mps 759 mmHg 46%
    14:00 +37°C° 0 mm 3 mps 759 mmHg 46%
    15:00 +37°C° 0 mm 3 mps 758 mmHg 45%
    16:00 +36°C° 0 mm 3 mps 758 mmHg 52%
    17:00 +34°C° 0 mm 3 mps 759 mmHg 58%
    18:00 +33°C° 0 mm 3 mps 759 mmHg 65%
    19:00 +30°C° 0 mm 2 mps 759 mmHg 72%
    20:00 +29°C° 0 mm 2 mps 760 mmHg 79%
    21:00 +28°C° 0 mm 2 mps 760 mmHg 87%
    22:00 +27°C° 0 mm 2 mps 760 mmHg 89%
    23:00 +27°C° 0 mm 2 mps 760 mmHg 92%

    21 July, Saturday

    Time Temperature Precipitation Wind Pressure Humidity
    00:00 +26°C° 0 mm 2 mps 760 mmHg 94%
    01:00 +26°C° 0 mm 2 mps 760 mmHg 95%
    02:00 +26°C° 0 mm 2 mps 759 mmHg 95%
    03:00 +26°C° 0 mm 2 mps 759 mmHg 96%
    04:00 +26°C° 0.2 mm 2 mps 759 mmHg 96%
    05:00 +26°C° 0.2 mm 2 mps 759 mmHg 95%
    06:00 +26°C° 0.2 mm 2 mps 760 mmHg 95%
    07:00 +28°C° 0.7 mm 2 mps 760 mmHg 88%
    08:00 +29°C° 0.7 mm 3 mps 760 mmHg 81%
    09:00 +31°C° 0.7 mm 3 mps 761 mmHg 74%
    10:00 +31°C° 1.4 mm 3 mps 760 mmHg 76%
    11:00 +31°C° 1.4 mm 3 mps 760 mmHg 79%
    12:00 +31°C° 1.4 mm 3 mps 760 mmHg 81%
    13:00 +31°C° 0.6 mm 3 mps 760 mmHg 77%
    14:00 +33°C° 0.6 mm 3 mps 759 mmHg 74%
    15:00 +33°C° 0.6 mm 3 mps 759 mmHg 70%
    16:00 +33°C° 0.1 mm 3 mps 759 mmHg 72%
    17:00 +31°C° 0.1 mm 3 mps 759 mmHg 73%
    18:00 +31°C° 0.1 mm 2 mps 760 mmHg 75%
    19:00 +29°C° 0.3 mm 2 mps 760 mmHg 81%
    20:00 +28°C° 0.3 mm 2 mps 761 mmHg 87%
    21:00 +27°C° 0.3 mm 2 mps 761 mmHg 93%
    22:00 +27°C° 0 mm 2 mps 761 mmHg 95%
    23:00 +27°C° 0 mm 2 mps 761 mmHg 96%

    22 July, Sunday

    Time Temperature Precipitation Wind Pressure Humidity
    00:00 +26°C° 0 mm 2 mps 761 mmHg 97%
    01:00 +26°C° 0.1 mm 2 mps 760 mmHg 97%
    02:00 +26°C° 0.1 mm 2 mps 760 mmHg 97%
    03:00 +26°C° 0.1 mm 2 mps 760 mmHg 98%
    04:00 +26°C° 0 mm 2 mps 760 mmHg 97%
    05:00 +26°C° 0 mm 2 mps 760 mmHg 97%
    06:00 +26°C° 0 mm 2 mps 760 mmHg 97%
    07:00 +29°C° 0 mm 2 mps 761 mmHg 85%
    08:00 +31°C° 0 mm 3 mps 761 mmHg 74%
    09:00 +34°C° 0 mm 3 mps 761 mmHg 63%
    10:00 +35°C° 0 mm 3 mps 761 mmHg 58%
    11:00 +36°C° 0 mm 3 mps 760 mmHg 53%
    12:00 +37°C° 0 mm 4 mps 760 mmHg 49%
    13:00 +37°C° 0 mm 4 mps 760 mmHg 49%
    14:00 +37°C° 0 mm 4 mps 759 mmHg 48%
    15:00 +37°C° 0 mm 4 mps 759 mmHg 48%
    16:00 +35°C° 0 mm 3 mps 759 mmHg 55%
    17:00 +34°C° 0 mm 3 mps 759 mmHg 61%
    18:00 +31°C° 0 mm 3 mps 759 mmHg 68%
    19:00 +30°C° 0 mm 2 mps 760 mmHg 76%
    20:00 +28°C° 0 mm 2 mps 760 mmHg 83%
    21:00 +27°C° 0 mm 2 mps 761 mmHg 91%
    22:00 +27°C° 0 mm 2 mps 761 mmHg 93%
    23:00 +26°C° 0 mm 2 mps 760 mmHg 95%
    Show more